CW1656 Weather Reports


time (UTC)temp
C
wind
direction
speed
KPH
gust
KPH
rain 1hr
cm
rain 24hr
cm
rain mn
cm
humidity
%
barometer
mb
20260505034530 16 140 1.6 12.9 0.00 0.00 0.00 67 1004.1
20260505033030 16 140 1.6 11.3 0.00 0.00 0.00 65 1004.2
20260505031534 15 157 3.2 14.5 0.00 0.00 0.00 65 1004.4
20260505030035 16 93 0.0 6.4 0.00 0.00 0.00 59 1004.8
20260505024529 16 153 1.6 4.8 0.00 0.00 0.00 57 1004.1
20260505023035 15 140 0.0 1.6 0.00 0.00 0.00 61 1004.0
20260505021528 16 140 0.0 3.2 0.00 0.00 0.00 57 1004.0
20260505020029 16 140 0.0 3.2 0.00 0.00 0.00 53 1004.2
20260505014526 16 140 1.6 3.2 0.00 0.00 0.00 52 1004.4
20260505013026 16 140 0.0 3.2 0.00 0.00 0.00 53 1004.4
20260505011530 17 140 0.0 4.8 0.00 0.00 0.00 52 1004.3
20260505010025 17 140 0.0 3.2 0.00 0.00 0.00 52 1004.2
20260505004533 17 112 0.0 0.0 0.00 0.00 0.00 52 1004.1
20260505003023 17 112 0.0 3.2 0.00 0.00 0.00 49 1004.1
20260505001523 18 63 0.0 1.6 0.00 0.00 0.00 47 1004.2
20260505000029 18 16 0.0 4.8 0.00 0.00 0.00 47 1004.3
20260504234520 20 268 0.0 3.2 0.00 0.00 0.00 45 1004.2
20260504233020 20 283 0.0 3.2 0.00 0.00 0.00 45 1004.2
20260504231519 21 84 0.0 8.0 0.00 0.00 0.00 43 1004.1
20260504230020 21 259 1.6 6.4 0.00 0.00 0.00 43 1004.2
20260504224518 21 252 1.6 16.1 0.00 0.00 0.00 41 1004.3
20260504223018 22 326 4.8 16.1 0.00 0.00 0.00 38 1004.1
20260504221520 22 355 4.8 11.3 0.00 0.00 0.00 38 1004.0
20260504220017 22 155 1.6 12.9 0.00 0.00 0.00 39 1003.9
20260504214515 22 246 1.6 19.3 0.00 0.00 0.00 40 1004.0
20260504213035 23 115 1.6 12.9 0.00 0.00 0.00 39 1004.2
20260504211518 22 284 3.2 12.9 0.00 0.00 0.00 39 1004.2
20260504210014 23 235 3.2 20.9 0.00 0.00 0.00 38 1004.3
20260504204510 23 130 1.6 14.5 0.00 0.00 0.00 42 1004.4
20260504203010 23 159 6.4 19.3 0.00 0.00 0.00 38 1004.5
20260504201512 23 284 3.2 11.3 0.00 0.00 0.00 40 1004.6
20260504200006 23 277 4.8 19.3 0.00 0.00 0.00 39 1004.8
20260504194503 23 153 0.0 14.5 0.00 0.00 0.00 44 1005.1
20260504193111 23 222 3.2 8.0 0.00 0.00 0.00 40 1005.3
20260504191557 22 113 3.2 17.7 0.00 0.00 0.00 46 1005.5
20260504190114 22 224 1.6 12.9 0.00 0.00 0.00 43 1005.8
20260504184600 22 275 3.2 16.1 0.00 0.00 0.00 44 1005.9
20260504183050 22 299 8.0 16.1 0.00 0.00 0.00 43 1006.2
20260504181548 22 248 4.8 12.9 0.00 0.00 0.00 44 1006.3
20260504180048 22 162 3.2 11.3 0.00 0.00 0.00 48 1006.5
20260504174544 22 246 4.8 16.1 0.00 0.00 0.00 48 1006.7
20260504173048 21 167 4.8 19.3 0.00 0.00 0.00 49 1006.6
20260504171539 21 260 3.2 14.5 0.00 0.00 0.00 52 1006.8
20260504081514 9 158 0.0 8.0 0.00 0.00 0.00 63 1009.2
20260504044557 10 186 0.0 1.6 0.00 0.00 0.00 62 1010.7
20260504043044 10 232 0.0 9.7 0.00 0.00 0.00 61 1010.7
20260504041541 10 215 1.6 6.4 0.00 0.00 0.00 60 1010.7
20260504040039 10 188 0.0 9.7 0.00 0.00 0.00 59 1010.8